Weather History for KVKS - January, 2014

Change the Weather History Date:

Friday, January 31, 2014

  Actual Average (KTVR) Record (KTVR)
Temperature  
Mean Temperature 50 °F 47 °F  
Max Temperature 64 °F 57 °F 82 °F (2002)
Min Temperature 35 °F 36 °F 13 °F (1966)
Degree Days  
Heating Degree Days 16 19  
Month to date heating degree days 610  
Since 1 July heating degree days 1544  
Cooling Degree Days 0 0  
Month to date cooling degree days 3  
Year to date cooling degree days 3  
Moisture  
Dew Point 40 °F    
Average Humidity 67    
Maximum Humidity 81    
Minimum Humidity 52    
Precipitation  
Precipitation 0.00 in 0.18 in 1.55 in (1951)
Month to date precipitation 5.07  
Year to date precipitation 5.07  
Sea Level Pressure  
Sea Level Pressure 30.07 in    
Wind  
Wind Speed 6 mph (SSE)    
Max Wind Speed 17 mph    
Max Gust Speed 25 mph    
Visibility 10 miles    
Events      
T = Trace of Precipitation, MM = Missing Value Source: NWS Daily Summary

Daily Weather History Graph

Daily Weather History Graph

Search for Another Location

Airport or City:

Trip Planner

Search our weather history database for the weather conditions in past years. The results will help you decide how hot, cold, wet, or windy it might be!

Date:

Astronomy

Jan. 31, 2014 Rise Set
Actual Time 6:58 AM CST 5:36 PM CST
Civil Twilight 6:32 AM CST 6:02 PM CST
Nautical Twilight 6:03 AM CST 6:31 PM CST
Astronomical Twilight 5:34 AM CST 7:00 PM CST
Moon 7:14 AM CST (1/31) 6:53 PM CST (1/31)
Length of Visible Light 11h 29m
Length of Day
10h 38m
New Moon, 1% of the Moon is Illuminated
Jan 31
New Moon
Feb 6
First Quarter
Feb 14
Full
Feb 22
Last Quarter
Mar 1
New

Hourly Weather History & Observations

Time (CST) Temp. Windchill Dew Point Humidity Pressure Visibility Wind Dir Wind Speed Gust Speed Precip Events Conditions
12:15 AM 37.4 °F 34.9 °F 24.8 °F 60% 30.11 in 10.0 mi SSE 3.5 mph - N/A   Overcast
12:35 AM 35.6 °F - 23.0 °F 60% 30.11 in 10.0 mi Calm Calm - N/A   Mostly Cloudy
12:55 AM 35.6 °F - 24.8 °F 65% 30.11 in 10.0 mi Calm Calm - N/A   Overcast
1:15 AM 35.6 °F - 24.8 °F 65% 30.12 in 10.0 mi Calm Calm - N/A   Overcast
1:35 AM 37.4 °F 34.9 °F 26.6 °F 65% 30.12 in 10.0 mi SSE 3.5 mph - N/A   Overcast
1:55 AM 35.6 °F 31.7 °F 26.6 °F 70% 30.12 in 10.0 mi SSE 4.6 mph - N/A   Overcast
2:15 AM 37.4 °F - 28.4 °F 70% 30.12 in 10.0 mi Calm Calm - N/A   Overcast
2:35 AM 37.4 °F 33.8 °F 30.2 °F 75% 30.12 in 10.0 mi SE 4.6 mph - N/A   Overcast
2:55 AM 39.2 °F 35.0 °F 30.2 °F 70% 30.11 in 10.0 mi SE 5.8 mph - N/A   Overcast
3:15 AM 39.2 °F 34.2 °F 30.2 °F 70% 30.11 in 10.0 mi SE 6.9 mph - N/A   Overcast
3:35 AM 39.2 °F 35.0 °F 32.0 °F 75% 30.11 in 10.0 mi SE 5.8 mph - N/A   Overcast
3:55 AM 39.2 °F 33.0 °F 32.0 °F 75% 30.10 in 10.0 mi SSE 9.2 mph - N/A   Overcast
4:15 AM 39.2 °F 35.0 °F 32.0 °F 75% 30.10 in 10.0 mi Variable 5.8 mph 11.5 mph N/A   Overcast
4:35 AM 39.2 °F 34.2 °F 32.0 °F 75% 30.10 in 10.0 mi SE 6.9 mph - N/A   Overcast
4:55 AM 39.2 °F 34.2 °F 32.0 °F 75% 30.10 in 10.0 mi SE 6.9 mph - N/A   Overcast
5:15 AM 39.2 °F 35.0 °F 32.0 °F 75% 30.11 in 10.0 mi SSE 5.8 mph - N/A   Overcast
5:35 AM 39.2 °F 34.2 °F 32.0 °F 75% 30.11 in 10.0 mi SSE 6.9 mph - N/A   Overcast
5:55 AM 39.2 °F 35.9 °F 33.8 °F 81% 30.11 in 10.0 mi SE 4.6 mph - N/A   Overcast
6:15 AM 41.0 °F 38.0 °F 33.8 °F 76% 30.11 in 10.0 mi SE 4.6 mph - N/A   Overcast
6:35 AM 41.0 °F 38.0 °F 33.8 °F 76% 30.12 in 10.0 mi SE 4.6 mph - N/A   Overcast
6:55 AM 41.0 °F 39.0 °F 33.8 °F 76% 30.12 in 10.0 mi SE 3.5 mph 11.5 mph N/A   Overcast
7:15 AM 41.0 °F 37.1 °F 33.8 °F 76% 30.12 in 10.0 mi SSE 5.8 mph - N/A   Overcast
7:35 AM 41.0 °F 37.1 °F 33.8 °F 76% 30.12 in 10.0 mi SE 5.8 mph - N/A   Overcast
7:55 AM 42.8 °F 40.1 °F 33.8 °F 70% 30.13 in 10.0 mi Variable 4.6 mph - N/A   Overcast
8:15 AM 42.8 °F 40.1 °F 33.8 °F 70% 30.13 in 10.0 mi SE 4.6 mph - N/A   Overcast
8:35 AM 44.6 °F 42.2 °F 35.6 °F 71% 30.13 in 10.0 mi Variable 4.6 mph - N/A   Overcast
8:55 AM 44.6 °F 42.2 °F 35.6 °F 71% 30.13 in 10.0 mi SE 4.6 mph - N/A   Overcast
9:15 AM 46.4 °F 44.3 °F 37.4 °F 71% 30.14 in 10.0 mi SE 4.6 mph - N/A   Overcast
9:35 AM 46.4 °F 43.5 °F 37.4 °F 71% 30.14 in 10.0 mi SE 5.8 mph - N/A   Overcast
9:55 AM 48.2 °F - 39.2 °F 71% 30.14 in 10.0 mi SSE 8.1 mph 13.8 mph N/A   Overcast
10:15 AM 50.0 °F - 41.0 °F 71% 30.14 in 10.0 mi SSE 10.4 mph 16.1 mph N/A   Overcast
10:35 AM 53.6 °F - 41.0 °F 62% 30.14 in 10.0 mi SSE 13.8 mph 21.9 mph N/A   Overcast
10:55 AM 53.6 °F - 41.0 °F 62% 30.14 in 10.0 mi SSE 11.5 mph - N/A   Overcast
11:15 AM 55.4 °F - 42.8 °F 63% 30.13 in 10.0 mi SSE 8.1 mph 17.3 mph N/A   Overcast
11:35 AM 57.2 °F - 42.8 °F 59% 30.12 in 10.0 mi SSE 10.4 mph 19.6 mph N/A   Overcast
11:55 AM 57.2 °F - 44.6 °F 63% 30.11 in 10.0 mi SE 12.7 mph 25.3 mph N/A   Overcast
12:15 PM 59.0 °F - 44.6 °F 59% 30.10 in 10.0 mi South 17.3 mph 24.2 mph N/A   Overcast
12:35 PM 60.8 °F - 44.6 °F 55% 30.09 in 10.0 mi SSE 13.8 mph 23.0 mph N/A   Overcast
12:55 PM 60.8 °F - 44.6 °F 55% 30.08 in 10.0 mi South 15.0 mph 21.9 mph N/A   Overcast
1:15 PM 60.8 °F - 44.6 °F 55% 30.06 in 10.0 mi SE 11.5 mph 19.6 mph N/A   Overcast
1:35 PM 62.6 °F - 44.6 °F 52% 30.05 in 10.0 mi South 17.3 mph 24.2 mph N/A   Overcast
1:55 PM 62.6 °F - 44.6 °F 52% 30.04 in 10.0 mi SSE 11.5 mph 21.9 mph N/A   Scattered Clouds
2:15 PM 62.6 °F - 44.6 °F 52% 30.03 in 10.0 mi SSE 10.4 mph 20.7 mph N/A   Scattered Clouds
2:35 PM 60.8 °F - 44.6 °F 55% 30.03 in 10.0 mi SSE 11.5 mph 20.7 mph N/A   Scattered Clouds
2:55 PM 60.8 °F - 46.4 °F 59% 30.03 in 10.0 mi SSE 8.1 mph 16.1 mph N/A   Scattered Clouds
3:15 PM 64.4 °F - 46.4 °F 52% 30.02 in 10.0 mi SSE 10.4 mph 20.7 mph N/A   Mostly Cloudy
3:35 PM 62.6 °F - 46.4 °F 55% 30.01 in 10.0 mi SSE 11.5 mph 17.3 mph N/A   Overcast
3:55 PM 62.6 °F - 46.4 °F 55% 30.01 in 10.0 mi South 12.7 mph - N/A   Mostly Cloudy
4:15 PM 62.6 °F - 46.4 °F 55% 30.02 in 10.0 mi SSE 9.2 mph 18.4 mph N/A   Mostly Cloudy
4:35 PM 62.6 °F - 46.4 °F 55% 30.01 in 10.0 mi SSE 13.8 mph 20.7 mph N/A   Mostly Cloudy
4:55 PM 62.6 °F - 46.4 °F 55% 30.01 in 10.0 mi South 16.1 mph - N/A   Partly Cloudy
5:15 PM 60.8 °F - 46.4 °F 59% 30.01 in 10.0 mi SSE 17.3 mph - N/A   Clear
5:35 PM 60.8 °F - 46.4 °F 59% 30.01 in 10.0 mi SSE 8.1 mph 17.3 mph N/A   Clear
5:55 PM 59.0 °F - 44.6 °F 59% 30.01 in 10.0 mi SSE 10.4 mph 17.3 mph N/A   Clear
6:15 PM 59.0 °F - 44.6 °F 59% 30.01 in 10.0 mi SSE 9.2 mph 15.0 mph N/A   Scattered Clouds
6:35 PM 57.2 °F - 44.6 °F 63% 30.01 in 10.0 mi SSE 9.2 mph 16.1 mph N/A   Overcast
6:55 PM 57.2 °F - 46.4 °F 67% 30.02 in 10.0 mi SSE 6.9 mph 15.0 mph N/A   Overcast
7:15 PM 57.2 °F - 46.4 °F 67% 30.02 in 10.0 mi SSE 8.1 mph 13.8 mph N/A   Overcast
7:35 PM 57.2 °F - 46.4 °F 67% 30.01 in 10.0 mi SSE 10.4 mph - N/A   Overcast
7:55 PM 55.4 °F - 46.4 °F 72% 30.02 in 10.0 mi SE 6.9 mph 15.0 mph N/A   Overcast
8:15 PM 55.4 °F - 46.4 °F 72% 30.01 in 10.0 mi SSE 8.1 mph 13.8 mph N/A   Overcast
8:35 PM 55.4 °F - 46.4 °F 72% 30.02 in 10.0 mi SSE 10.4 mph - N/A   Overcast
8:55 PM 55.4 °F - 46.4 °F 72% 30.02 in 10.0 mi SSE 9.2 mph - N/A   Overcast
9:15 PM 55.4 °F - 46.4 °F 72% 30.01 in 10.0 mi SSE 10.4 mph - N/A   Overcast
9:35 PM 55.4 °F - 46.4 °F 72% 30.01 in 10.0 mi SSE 9.2 mph 15.0 mph N/A   Overcast
9:55 PM 55.4 °F - 46.4 °F 72% 30.00 in 10.0 mi SSE 12.7 mph 18.4 mph N/A   Overcast
10:15 PM 55.4 °F - 46.4 °F 72% 30.01 in 10.0 mi SSE 9.2 mph 17.3 mph N/A   Overcast
10:35 PM 55.4 °F - 46.4 °F 72% 30.01 in 10.0 mi SSE 11.5 mph - N/A   Overcast
10:55 PM 55.4 °F - 46.4 °F 72% 30.02 in 10.0 mi Variable 6.9 mph 13.8 mph N/A   Overcast
11:15 PM 53.6 °F - 46.4 °F 77% 30.02 in 10.0 mi SSE 9.2 mph 16.1 mph N/A   Overcast
11:35 PM 53.6 °F - 46.4 °F 77% 30.01 in 10.0 mi SSE 9.2 mph 15.0 mph N/A   Overcast
11:55 PM 53.6 °F - 46.4 °F 77% 30.01 in 10.0 mi SSE 9.2 mph 16.1 mph N/A   Mostly Cloudy